Regional Weather Roundup
Issued by NWS Little Rock, AR

Home | Current Version | Previous Version | Graphics & Text | Print | Product List | Glossary On
Versions: 1 2 3 4 5 6 7 8 9 10 11 12 13 14 15 16 17 18 19 20 21 22 23 24 25 26 27 28 29 30 31 32 33 34 35 36 37 38 39 40 41 42 43 44 45 46 47 48 49 50
000
ASUS44 KLZK 041805
RWRLZK

WEATHER ROUNDUP FOR ARKANSAS
NATIONAL WEATHER SERVICE LITTLE ROCK AR
1200 PM CST WED MAR 04 2015

NOTE: "FAIR" INDICATES FEW OR NO CLOUDS BELOW 12,000 FEET WITH NO
SIGNIFICANT WEATHER AND/OR OBSTRUCTIONS TO VISIBILITY.

ARZ001-003-010-029-041900-
NORTHWEST ARKANSAS

CITY           SKY/WX    TMP DP  RH WIND       PRES   REMARKS
FAYETTEVILLE   LGT SNOW  28  27  96 N9G20     30.09S VSB 3/4 WCI  19
6HR MIN TEMP:  29; 6HR MAX TEMP:  36; 6HR PCP:  0.49;

FORT SMITH     LGT RAIN  38  35  89 N10       30.06R FOG
6HR MIN TEMP:  38; 6HR MAX TEMP:  47; 6HR PCP:  0.43;

HARRISON       MIX PCPN  30  29  96 N10       30.10R FOG     WCI  21
6HR MIN TEMP:  30; 6HR MAX TEMP:  35; 6HR PCP:  0.51;

BENTONVILLE    CLOUDY    25  19  80 NE21      30.12F WCI  10
6HR MIN TEMP:  25; 6HR MAX TEMP:  34; 6HR PCP:  0.16;

ROGERS         LGT SNOW  25  22  88 N22G29    30.12F FOG     WCI  10
6HR MIN TEMP:  25; 6HR MAX TEMP:  29; 6HR PCP:  0.40;

SILOAM SPGS    CLOUDY    25  18  74 NE21G30   30.12F WCI  10
6HR MIN TEMP:  25; 6HR MAX TEMP:  34; 6HR PCP:  0.25;

HIGHFILL       LGT SNOW  26  23  88 N18G29    30.10F FOG     WCI  13
6HR MIN TEMP:  26; 6HR MAX TEMP:  34; 6HR PCP:  0.33;

SPRINGDALE     FRZ RAIN  27  25  93 NE13G24   30.10F VSB 1   WCI  16
$$

ARZ004-005-016-041900-
NORTH CENTRAL ARKANSAS

CITY           SKY/WX    TMP DP  RH WIND       PRES   REMARKS
BATESVILLE     CLOUDY    37  36  93 N8        30.07R
6HR MIN TEMP:  37; 6HR MAX TEMP:  46; 6HR PCP:  0.67;

FLIPPIN        CLOUDY    30  25  80 CALM      30.11R
6HR MIN TEMP:  30; 6HR MAX TEMP:  37; 6HR PCP:  0.60;

MTN HOME       FRZ RAIN  29  29 100 N9G17     30.10R FOG     WCI  20
6HR MIN TEMP:  29; 6HR MAX TEMP:  37;

$$

ARZ040-041-041900-
WEST CENTRAL ARKANSAS

CITY           SKY/WX    TMP DP  RH WIND       PRES   REMARKS
MENA           CLOUDY    45  43  93 N3        29.98R
MOUNT IDA      HVY RAIN  44  42  93 N6        29.96R FOG
6HR MIN TEMP:  44; 6HR MAX TEMP:  53; 6HR PCP:  0.33;

$$

ARZ009-017-025-026-028-041900-
NORTHEAST ARKANSAS

CITY           SKY/WX    TMP DP  RH WIND       PRES   REMARKS
CORNING        LGT RAIN  34  32  93 N23G31    30.09S WCI  22
JONESBORO      LGT RAIN  36  35  96 N14G24    30.04F FOG
6HR MIN TEMP:  35; 6HR MAX TEMP:  44; 6HR PCP:  0.78;

NEWPORT        LGT RAIN  38  36  92 N21       30.06R
6HR MIN TEMP:  37; 6HR MAX TEMP:  45; 6HR PCP:  0.79;

WALNUT RIDGE   CLOUDY    36  30  80 N18G30    30.04F
6HR MIN TEMP:  36; 6HR MAX TEMP:  43; 6HR PCP:  0.44;

BLYTHEVILLE    LGT SNOW  36  34  92 N29G40    30.02F FOG
6HR MIN TEMP:  36; 6HR MAX TEMP:  45; 6HR PCP:  0.16;

$$

ARZ022-023-033-042-044-041900-
CENTRAL ARKANSAS

CITY           SKY/WX    TMP DP  RH WIND       PRES   REMARKS
LITTLE ROCK    LGT RAIN  44  41  89 N16       30.00R FOG
6HR MIN TEMP:  44; 6HR MAX TEMP:  52; 6HR PCP:  0.21;

N LITTLE ROCK  CLOUDY    41  41 100 N13       30.00R
6HR MIN TEMP:  40; 6HR MAX TEMP:  52;

JACKSONVILLE   LGT RAIN  41  41 100 N17G23    30.00R FOG
6HR MIN TEMP:  41; 6HR MAX TEMP:  51;

SEARCY         LGT RAIN  40  38  93 NE17      30.04R
6HR MIN TEMP:  40; 6HR MAX TEMP:  50; 6HR PCP:  0.34;

HOT SPRINGS    RAIN      43  41  93 NE15G21   29.97S FOG
6HR MIN TEMP:  44; 6HR MAX TEMP:  55;

RUSSELLVILLE   LGT RAIN  39  37  92 N7        30.01F FOG
6HR MIN TEMP:  39; 6HR MAX TEMP:  49; 6HR PCP:  0.41;

CLINTON        LGT RAIN  37  34  87 NW8       30.08R
$$

ARZ036-041900-
EAST ARKANSAS

CITY           SKY/WX    TMP DP  RH WIND       PRES   REMARKS
WEST MEMPHIS   LGT RAIN  37  37 100 N18G32    29.99R FOG
6HR MIN TEMP:  37; 6HR MAX TEMP:  50; 6HR PCP:  0.07;

$$

ARZ050-053-066-070-073-041900-
SOUTHWEST ARKANSAS

CITY           SKY/WX    TMP DP  RH WIND       PRES   REMARKS
ARKADELPHIA    RAIN      48  48 100 NE15      29.95S FOG
6HR MIN TEMP:  49; 6HR MAX TEMP:  56; 6HR PCP:  0.22;

CAMDEN         FOG       54  50  87 MISG      29.91R VSB 1
TEXARKANA      RAIN      54  53  97 N8        29.89F FOG
6HR MIN TEMP:  53; 6HR MAX TEMP:  55; 6HR PCP:  0.41;

EL DORADO      CLOUDY    62  60  93 NW12      29.88R
6HR MIN TEMP:  62; 6HR MAX TEMP:  71; 6HR PCP:  0.05;

DE QUEEN       LGT RAIN  50  48  93 VRB6      29.92S FOG
6HR MIN TEMP:  50; 6HR MAX TEMP:  55;

$$

ARZ056-057-069-041900-
SOUTHEAST ARKANSAS

CITY           SKY/WX    TMP DP  RH WIND       PRES   REMARKS
PINE BLUFF     HVY RAIN  45  43  93 NE15      29.97S FOG
6HR MIN TEMP:  45; 6HR MAX TEMP:  56; 6HR PCP:  0.38;

STUTTGART      CLOUDY    43  39  87 N26       29.99F
6HR MIN TEMP:  41; 6HR MAX TEMP:  52; 6HR PCP:  0.14;

MONTICELLO     CLOUDY    52  49  89 N10G25    29.89R
6HR MIN TEMP:  52; 6HR MAX TEMP:  71; 6HR PCP:  0.12;


$$





USA.gov is the U.S. government's official web portal to all federal, state and local government web resources and services.